Regional Weather Roundup
Issued by NWS Green Bay, WI

Home | Current Version | Previous Version | Graphics & Text | Print | Product List | Glossary Off
Versions: 1 2 3 4 5 6 7 8 9 10 11 12 13 14 15 16 17 18 19 20 21 22 23 24 25 26 27 28 29 30 31 32 33 34 35 36 37 38 39 40 41 42 43 44 45 46 47 48 49 50

000
ASUS43 KGRB 250711
RWRGRB

NORTH-CENTRAL AND NORTHEAST WISCONSIN REGIONAL WEATHER ROUNDUP
NATIONAL WEATHER SERVICE GREEN BAY WI
200 AM CDT MON MAY 25 2015

WIZ005-009-010>012-018-019-250800-
NORTH CENTRAL WISCONSIN

CITY           SKY/WX    TMP DP  RH WIND       PRES   REMARKS
IRONWOOD       CLOUDY    57  55  94 E6        29.84F
MANITOWISH WTR HVY RAIN  56  56 100 E8        29.86F
ARBOR VITAE    RAIN      57  55  95 E5        29.85F
EAGLE RIVER    HVY RAIN  56  56  99 E7        29.86F
LAND O LAKES   RAIN      56  56  98 E7        29.89F
RHINELANDER    LGT RAIN  56  54  93 E12       29.86F
PHILLIPS       DRIZZLE   56  55  98 E6        29.82F
ANTIGO         DRIZZLE   54  54  99 E13       29.86F
TOMAHAWK       DRIZZLE   55  54  96 E3        29.84F
MERRILL        RAIN      56  56 100 E6        29.84F
$$

WIZ013-073-250800-
NORTHEAST WISCONSIN

CITY           SKY/WX    TMP DP  RH WIND       PRES   REMARKS
IRON MOUNTAIN  RAIN      55  54  96 NE5       29.89F FOG
MARINETTE      CLOUDY    54  52  94 E13       29.88F
OCONTO         CLOUDY    56  56 100 E7        29.87F
$$

WIZ017-030-035>037-045-250800-
CENTRAL WISCONSIN

CITY           SKY/WX    TMP DP  RH WIND       PRES   REMARKS
MEDFORD        HVY RAIN  54  54  99 E9G16     29.80F
WAUSAU         LGT RAIN  56  55  97 E9        29.81F
MOSINEE        CLOUDY    54  54 100 E9        29.82F
MARSHFIELD     LGT RAIN  57  54  89 E12       29.79F FOG
WISC RAPIDS    LGT RAIN  58  55  90 SE7       29.81F
STEVENS POINT  CLOUDY    55  54  98 E8        29.82F FOG
WAUPACA        CLOUDY    59  58  97 E3        29.84F FOG
SHAWANO        LGT RAIN  58  57  96 E6        29.86F
CLINTONVILLE   CLOUDY    55  55 100 E3        29.85F
$$

WIZ038-039-048-051-250800-
FOX VALLEY

CITY           SKY/WX    TMP DP  RH WIND       PRES   REMARKS
NWS GREEN BAY  CLOUDY    59  57  93 E6        29.86F FOG
APPLETON       CLOUDY    55  55 100 E6        29.84F FOG
OSHKOSH        CLOUDY    60  57  89 SE8       29.83F FOG
FOND DU LAC    CLOUDY    60  58  92 S8        29.84F
$$

WIZ022-050-052-250800-
EAST CENTRAL WISCONSIN

CITY           SKY/WX    TMP DP  RH WIND       PRES   REMARKS
STURGEON BAY   CLOUDY    55  52  88 SE12      29.91F
MANITOWOC      CLOUDY    53  53 100 SE3       29.87F FOG
SHEBOYGAN      LGT RAIN  55  53  93 CALM      29.86F FOG
$$

LMZ563-521-522-541>543-250800-
LAKESHORE

STATION/POSITION TIME  TEMP    WIND        PRES    VSBY  WAVE
                       AIR SEA DIR/SP/G                  HT/PER
                 (UTC) (F)     (DEG/KT/KT) (MB)    (MI)  (FT/S)
SHEBOYGAN LKSHOR 0700   49     130/  4/  5 1011.7F
KEWAUNEE LKSHORE 0600   51      40/  8/  9 1012.4F
NORTHPORT PIER   0600   50      70/  7/  9 1013.9F
N MID LAKE BUOY  0650   45 36  110/ 14/ 16 1013.3F         1
SISTER BAY LKSHO 0617   54      90/  5/  9   N/A
CHAMBERS ISLAND  0600   51      20/  8/ 11 1013.9F
MENOMINEE LKSHOR 0600   52      30/ 13/ 16 1013.7F
$$



USA.gov is the U.S. government's official web portal to all federal, state and local government web resources and services.